International Virtual Aviation Organisation

Russian Federation and Kazakhstan MCD

 

Карточка аэропорта USSS

Внимание!
Информация на этой странице в стадии наполнения.
Если вы не увидели какой-то информации, или заметили неточность - пожалуйста сообщите нам!
Спасибо!
Команда RU-STAFF
Название аэропортаКольцово
Название аэропорта (англ.)Koltsovo
Превышение766 ft. (233.5 m.)
Координаты56°44.586', 60°48.186'
Высота перехода900m
Эшелон переходаQFE>=739mm:FL050; QFE 712mm-738mm:FL060; QFE<=712mm:FL70
Коды ответчика5520-5557
Зона ОрВДЕкатеринбург РПИ (USSS)
Данные METARUSSS 220330Z 28005MPS 9999 FEW013 09/07 Q1013 R26R/090060 R26L/010060 NOSIG RMK QFE739/0985
Проноз погоды (TAF)USSS 220158Z 2203/2303 30006G13MPS 9999 SCT020 BECMG 2209/2211 BKN015
NOTAMshow/hide NOTAM
AWOS   TABLE

Информация о ВПП

ВПП Длина ВПП (м.) Покрытие Курс ВПП Частота ILS
08L3004Асфальтобетон76111.7
26R3004Асфальтобетон256110.5
08R3026Бетон80109.9
26L3026Бетон260109.5

Диспетчерские позиции

Позывной Наименование органа УВД Частота
USSS_APPКольцово-Подход125.9
USSS_R_APPКольцово-Круг118.7
USSS_TWRКольцово-Старт120.0
USSS_GNDКольцово-Руление119.0
USSSFM1Машина сопровождения119.000
USSS_FSS_CTRКольцово Транзит131.900



Спутниковое изображение